Location: Krakow
(50.0830°N, 19.9170°E)
Time: 09:52:19
(UTC+01:00)

Transit 2A - Pass Details

Date: 08 February 2023
Orbit: 591 x 964 km, 66.7° (Epoch: 21 March)

Event Time Altitude Azimuth Distance (km) Brightness Sun altitude
Rises 21:28:39 0° 319° (NW) 3,389 10.1 -44.1°
Reaches altitude 10° 21:31:37 10° 335° (NNW) 2,517 9.1 -44.5°
Enters shadow 21:32:15 12° 340° (NNW) 2,359 8.9 -44.5°
Maximum altitude 21:36:09 22° 25° (NNE) 1,871 - -45.0°
Drops below altitude 10° 21:40:53 10° 75° (ENE) 2,660 - -45.6°
Sets 21:44:08 0° 90° (E) 3,632 - -46.0°
